When you browse on this site, cookies collect data to enhance your experience and personalize the content and advertising you see.
Visit our Privacy Policy to learn more. By continuing to use the site, you agree to this use of cookies and data.
  • In United Kingdom
  • List of Countries
  • For 7 days
  • Water Temperature
  • Satellite Maps
  • Weather Map
  • Weather Widgets
  • user-avatar
    Login

    Hourly Weather Digah

    Today, 20 May, Monday

    Time Temperature Precipitation Wind Pressure Humidity
    00:00 +21°C° 0 mm 9 mps 753 mmHg 75%
    01:00 +21°C° 0 mm 10 mps 753 mmHg 74%
    02:00 +21°C° 0 mm 10 mps 753 mmHg 74%
    03:00 +19°C° 0 mm 10 mps 753 mmHg 73%
    04:00 +21°C° 0.3 mm 10 mps 754 mmHg 70%
    05:00 +21°C° 0.3 mm 11 mps 754 mmHg 68%
    06:00 +21°C° 0.3 mm 11 mps 754 mmHg 66%
    07:00 +21°C° 0.4 mm 11 mps 754 mmHg 63%
    08:00 +22°C° 0.4 mm 11 mps 755 mmHg 60%
    09:00 +23°C° 0.4 mm 11 mps 755 mmHg 57%
    10:00 +23°C° 0.5 mm 11 mps 755 mmHg 55%
    11:00 +23°C° 0.5 mm 11 mps 756 mmHg 53%
    12:00 +24°C° 0.5 mm 12 mps 756 mmHg 50%
    13:00 +24°C° 0 mm 12 mps 756 mmHg 48%
    14:00 +24°C° 0 mm 12 mps 756 mmHg 46%
    15:00 +24°C° 0 mm 12 mps 756 mmHg 43%
    16:00 +23°C° 0 mm 12 mps 756 mmHg 44%
    17:00 +23°C° 0 mm 11 mps 756 mmHg 45%
    18:00 +22°C° 0 mm 11 mps 756 mmHg 46%
    19:00 +22°C° 0 mm 11 mps 756 mmHg 47%
    20:00 +21°C° 0 mm 11 mps 757 mmHg 48%
    21:00 +21°C° 0 mm 10 mps 757 mmHg 50%
    22:00 +21°C° 0.1 mm 10 mps 757 mmHg 51%
    23:00 +21°C° 0.1 mm 11 mps 757 mmHg 52%

    Tomorrow, 21 May, Tuesday

    Time Temperature Precipitation Wind Pressure Humidity
    00:00 +21°C° 0.1 mm 11 mps 757 mmHg 53%
    01:00 +19°C° 0 mm 10 mps 758 mmHg 54%
    02:00 +19°C° 0 mm 10 mps 758 mmHg 56%
    03:00 +19°C° 0 mm 10 mps 758 mmHg 57%
    04:00 +19°C° 0 mm 10 mps 758 mmHg 59%
    05:00 +19°C° 0 mm 10 mps 759 mmHg 60%
    06:00 +19°C° 0 mm 9 mps 759 mmHg 62%
    07:00 +19°C° 0 mm 9 mps 759 mmHg 60%
    08:00 +21°C° 0 mm 9 mps 760 mmHg 57%
    09:00 +21°C° 0 mm 9 mps 760 mmHg 55%
    10:00 +21°C° 0 mm 9 mps 761 mmHg 51%
    11:00 +22°C° 0 mm 9 mps 761 mmHg 47%
    12:00 +22°C° 0 mm 10 mps 761 mmHg 44%
    13:00 +22°C° 0 mm 9 mps 761 mmHg 42%
    14:00 +21°C° 0 mm 9 mps 761 mmHg 41%
    15:00 +21°C° 0 mm 9 mps 761 mmHg 40%
    16:00 +21°C° 0 mm 9 mps 761 mmHg 41%
    17:00 +19°C° 0 mm 9 mps 761 mmHg 43%
    18:00 +20°C° 0 mm 8 mps 761 mmHg 44%
    19:00 +20°C° 0 mm 8 mps 761 mmHg 46%
    20:00 +18°C° 0 mm 8 mps 762 mmHg 48%
    21:00 +18°C° 0 mm 8 mps 762 mmHg 50%
    22:00 +18°C° 0 mm 8 mps 762 mmHg 51%
    23:00 +18°C° 0 mm 7 mps 762 mmHg 53%

    Day after tomorrow, 22 May, Wednesday

    Time Temperature Precipitation Wind Pressure Humidity
    00:00 +17°C° 0 mm 7 mps 762 mmHg 54%
    01:00 +17°C° 0 mm 6 mps 762 mmHg 56%
    02:00 +17°C° 0 mm 6 mps 761 mmHg 57%
    03:00 +17°C° 0 mm 5 mps 761 mmHg 59%
    04:00 +17°C° 0 mm 5 mps 761 mmHg 58%
    05:00 +18°C° 0 mm 4 mps 761 mmHg 57%
    06:00 +19°C° 0 mm 3 mps 761 mmHg 56%
    07:00 +20°C° 0 mm 3 mps 761 mmHg 50%
    08:00 +21°C° 0 mm 3 mps 761 mmHg 44%
    09:00 +22°C° 0 mm 3 mps 761 mmHg 38%
    10:00 +24°C° 0 mm 3 mps 760 mmHg 35%
    11:00 +25°C° 0 mm 4 mps 760 mmHg 31%
    12:00 +26°C° 0 mm 5 mps 759 mmHg 28%
    13:00 +26°C° 0 mm 5 mps 758 mmHg 27%
    14:00 +26°C° 0 mm 5 mps 758 mmHg 26%
    15:00 +27°C° 0 mm 5 mps 757 mmHg 24%
    16:00 +26°C° 0 mm 5 mps 757 mmHg 25%
    17:00 +26°C° 0 mm 5 mps 756 mmHg 26%
    18:00 +26°C° 0 mm 5 mps 756 mmHg 27%
    19:00 +25°C° 0 mm 5 mps 756 mmHg 30%
    20:00 +25°C° 0 mm 5 mps 756 mmHg 32%
    21:00 +23°C° 0 mm 5 mps 756 mmHg 34%
    22:00 +23°C° 0 mm 5 mps 756 mmHg 34%
    23:00 +23°C° 0 mm 5 mps 756 mmHg 33%

    23 May, Thursday

    Time Temperature Precipitation Wind Pressure Humidity
    00:00 +23°C° 0 mm 6 mps 756 mmHg 32%
    01:00 +23°C° 0 mm 5 mps 755 mmHg 36%
    02:00 +23°C° 0 mm 5 mps 755 mmHg 39%
    03:00 +23°C° 0 mm 5 mps 755 mmHg 42%
    04:00 +22°C° 0 mm 6 mps 756 mmHg 49%
    05:00 +21°C° 0 mm 7 mps 756 mmHg 56%
    06:00 +20°C° 0 mm 8 mps 756 mmHg 63%
    07:00 +21°C° 0 mm 8 mps 756 mmHg 61%
    08:00 +21°C° 0 mm 8 mps 756 mmHg 58%
    09:00 +22°C° 0 mm 9 mps 756 mmHg 56%
    10:00 +23°C° 0 mm 8 mps 756 mmHg 55%
    11:00 +23°C° 0 mm 8 mps 756 mmHg 53%
    12:00 +23°C° 0 mm 8 mps 756 mmHg 52%
    13:00 +23°C° 0 mm 8 mps 755 mmHg 53%
    14:00 +23°C° 0 mm 9 mps 755 mmHg 54%
    15:00 +23°C° 0 mm 9 mps 755 mmHg 55%
    16:00 +22°C° 0 mm 9 mps 755 mmHg 56%
    17:00 +22°C° 0 mm 9 mps 755 mmHg 58%
    18:00 +21°C° 0 mm 9 mps 756 mmHg 59%
    19:00 +21°C° 0 mm 8 mps 756 mmHg 61%
    20:00 +21°C° 0 mm 8 mps 757 mmHg 62%
    21:00 +20°C° 0 mm 7 mps 757 mmHg 63%
    22:00 +20°C° 0 mm 6 mps 757 mmHg 64%
    23:00 +20°C° 0 mm 5 mps 757 mmHg 64%

    24 May, Friday

    Time Temperature Precipitation Wind Pressure Humidity
    00:00 +20°C° 0 mm 4 mps 757 mmHg 64%
    01:00 +20°C° 0 mm 3 mps 757 mmHg 64%
    02:00 +20°C° 0 mm 2 mps 756 mmHg 64%
    03:00 +21°C° 0 mm 1 mps 756 mmHg 65%
    04:00 +21°C° 0 mm 1 mps 756 mmHg 63%
    05:00 +21°C° 0 mm 2 mps 757 mmHg 61%
    06:00 +21°C° 0 mm 2 mps 757 mmHg 60%
    07:00 +23°C° 0 mm 2 mps 757 mmHg 55%
    08:00 +24°C° 0 mm 2 mps 757 mmHg 51%
    09:00 +25°C° 0 mm 3 mps 757 mmHg 46%
    10:00 +26°C° 0 mm 3 mps 757 mmHg 44%
    11:00 +27°C° 0 mm 4 mps 757 mmHg 41%
    12:00 +28°C° 0 mm 5 mps 757 mmHg 39%
    13:00 +28°C° 0 mm 5 mps 757 mmHg 39%
    14:00 +28°C° 0 mm 6 mps 756 mmHg 40%
    15:00 +28°C° 0 mm 7 mps 756 mmHg 40%
    16:00 +27°C° 0 mm 6 mps 756 mmHg 43%
    17:00 +26°C° 0 mm 6 mps 757 mmHg 45%
    18:00 +24°C° 0 mm 6 mps 757 mmHg 47%
    19:00 +25°C° 0 mm 5 mps 757 mmHg 50%
    20:00 +23°C° 0 mm 4 mps 757 mmHg 54%
    21:00 +23°C° 0 mm 4 mps 757 mmHg 57%
    22:00 +22°C° 0 mm 4 mps 757 mmHg 59%
    23:00 +22°C° 0 mm 4 mps 757 mmHg 60%

    25 May, Saturday

    Time Temperature Precipitation Wind Pressure Humidity
    00:00 +22°C° 0 mm 3 mps 757 mmHg 62%
    01:00 +22°C° 0 mm 4 mps 756 mmHg 63%
    02:00 +22°C° 0 mm 4 mps 756 mmHg 64%
    03:00 +22°C° 0 mm 4 mps 756 mmHg 65%
    04:00 +22°C° 0 mm 5 mps 756 mmHg 64%
    05:00 +22°C° 0 mm 5 mps 756 mmHg 64%
    06:00 +22°C° 0 mm 5 mps 756 mmHg 63%
    07:00 +23°C° 0 mm 6 mps 756 mmHg 60%
    08:00 +24°C° 0 mm 7 mps 756 mmHg 57%
    09:00 +26°C° 0 mm 8 mps 756 mmHg 54%
    10:00 +27°C° 0 mm 8 mps 755 mmHg 52%
    11:00 +28°C° 0 mm 8 mps 755 mmHg 50%
    12:00 +28°C° 0 mm 9 mps 755 mmHg 48%
    13:00 +28°C° 0 mm 9 mps 754 mmHg 47%
    14:00 +28°C° 0 mm 9 mps 754 mmHg 47%
    15:00 +28°C° 0 mm 9 mps 753 mmHg 46%
    16:00 +28°C° 0 mm 9 mps 753 mmHg 47%
    17:00 +27°C° 0 mm 9 mps 753 mmHg 48%
    18:00 +26°C° 0 mm 9 mps 753 mmHg 49%
    19:00 +26°C° 0 mm 8 mps 753 mmHg 51%
    20:00 +26°C° 0 mm 8 mps 753 mmHg 53%
    21:00 +24°C° 0 mm 8 mps 753 mmHg 55%
    22:00 +24°C° 0 mm 8 mps 753 mmHg 56%
    23:00 +24°C° 0 mm 9 mps 753 mmHg 57%
    Show more